Weather History for McComb, MS

Change the Weather History Date:

Wednesday, October 24, 2012

  Actual Average Record
Temperature  
Mean Temperature 72 °F -  
Max Temperature 82 °F 76 °F 89 °F (2003)
Min Temperature 64 °F 53 °F 35 °F (1996)
Cooling Degree Days 7    
Growing Degree Days 22 (Base 50)    
Moisture  
Dew Point 64 °F    
Average Humidity 90    
Maximum Humidity 100    
Minimum Humidity 52    
Precipitation  
Precipitation 0.01 in - - ()
Sea Level Pressure  
Sea Level Pressure 30.05 in    
Wind  
Wind Speed 1 mph (SE)    
Max Wind Speed 7 mph    
Max Gust Speed -    
Visibility 5 miles    
Events Fog    
Averages and records for this station are not official NWS values.
T = Trace of Precipitation, MM = Missing Value Source: NWS Daily Summary

Daily Weather History Graph

Daily Weather History Graph

Search for Another Location

Airport:

Trip Planner

Search our weather history database for the weather conditions in past years. The results will help you decide how hot, cold, wet, or windy it might be!

Date:

Astronomy

Oct. 24, 2012 Rise Set
Actual Time 7:11 AM CDT 6:20 PM CDT
Civil Twilight 6:46 AM CDT 6:44 PM CDT
Nautical Twilight 6:18 AM CDT 7:13 PM CDT
Astronomical Twilight 5:50 AM CDT 7:41 PM CDT
Moon 3:20 PM CDT (10/24) 2:25 AM CDT (10/24)
Length of Visible Light 11h 57m
Length of Day
11h 08m
Waxing Gibbous, 76% of the Moon is Illuminated
Oct 24
Waxing Gibbous
Oct 29
Full
Nov 6
Last Quarter
Nov 13
New
Nov 20
First Quarter

Hourly Weather History & Observations

Time (CDT) Temp. Heat Index Dew Point Humidity Pressure Visibility Wind Dir Wind Speed Gust Speed Precip Events Conditions
12:39 AM 64.4 °F - 64.4 °F 100% 30.05 in 2.0 mi Calm Calm - N/A   Clear
12:46 AM 64.4 °F - 62.6 °F 94% 30.06 in 1.8 mi Calm Calm - N/A   Clear
12:50 AM 64.4 °F - 62.6 °F 94% 30.06 in 4.0 mi Calm Calm - N/A   Clear
12:53 AM 64.0 °F - 63.0 °F 96% 30.04 in 6.0 mi Calm Calm - N/A   Partly Cloudy
12:58 AM 64.4 °F - 62.6 °F 94% 30.06 in 1.8 mi Calm Calm - N/A   Scattered Clouds
1:02 AM 64.4 °F - 62.6 °F 94% 30.06 in 0.8 mi Calm Calm - N/A   Mist
1:16 AM 64.4 °F - 64.4 °F 100% 30.06 in 2.0 mi Calm Calm - N/A   Overcast
1:23 AM 64.4 °F - 64.4 °F 100% 30.06 in 4.0 mi Calm Calm - N/A   Overcast
1:28 AM 64.4 °F - 64.4 °F 100% 30.06 in 1.5 mi Calm Calm - N/A   Overcast
1:36 AM 64.4 °F - 64.4 °F 100% 30.06 in 0.2 mi SE 4.6 mph - N/A Fog Fog
1:53 AM 66.0 °F - 66.0 °F 100% 30.05 in 0.2 mi SSE 4.6 mph - N/A Fog Fog
2:37 AM 66.2 °F - 66.2 °F 100% 30.06 in 0.5 mi SSE 4.6 mph - N/A Fog Fog
2:53 AM 66.9 °F - 66.9 °F 100% 30.04 in 1.0 mi SE 3.5 mph - N/A   Overcast
3:23 AM 66.2 °F - 66.2 °F 100% 30.05 in 0.8 mi SSE 3.5 mph - N/A   Mist
3:53 AM 66.0 °F - 66.0 °F 100% 30.04 in 0.5 mi Calm Calm - N/A Fog Fog
4:15 AM 66.2 °F - 66.2 °F 100% 30.05 in 0.2 mi Calm Calm - N/A Fog Fog
4:41 AM 66.2 °F - 66.2 °F 100% 30.06 in 0.5 mi Calm Calm - N/A Fog Fog
4:53 AM 66.0 °F - 66.0 °F 100% 30.05 in 0.5 mi Calm Calm - N/A Fog Fog
5:11 AM 66.2 °F - 66.2 °F 100% 30.07 in 0.2 mi Calm Calm - N/A Fog Fog
5:53 AM 66.0 °F - 66.0 °F 100% 30.06 in 0.2 mi Calm Calm - N/A Fog Fog
6:53 AM 64.9 °F - 64.9 °F 100% 30.08 in 0.2 mi Calm Calm - 0.01 in Fog Fog
7:53 AM 64.0 °F - 64.0 °F 100% 30.10 in 0.2 mi Calm Calm - N/A Fog Fog
8:38 AM 64.4 °F - 64.4 °F 100% 30.12 in 0.5 mi Calm Calm - N/A Fog Fog
8:53 AM 64.9 °F - 64.9 °F 100% 30.11 in 1.2 mi Calm Calm - N/A   Overcast
9:22 AM 64.4 °F - 64.4 °F 100% 30.12 in 10.0 mi Variable 3.5 mph - N/A   Scattered Clouds
9:37 AM 66.2 °F - 64.4 °F 94% 30.12 in 8.0 mi Calm Calm - N/A   Mostly Cloudy
9:53 AM 69.1 °F - 66.0 °F 90% 30.11 in 10.0 mi Calm Calm - N/A   Mostly Cloudy
10:04 AM 69.8 °F - 66.2 °F 88% 30.12 in 8.0 mi East 3.5 mph - N/A   Partly Cloudy
10:53 AM 73.9 °F - 66.0 °F 76% 30.09 in 10.0 mi Variable 5.8 mph - N/A   Partly Cloudy
11:53 AM 77.0 °F - 64.9 °F 66% 30.08 in 10.0 mi SSE 6.9 mph - N/A   Partly Cloudy
12:53 PM 79.0 °F - 64.0 °F 60% 30.05 in 10.0 mi Variable 5.8 mph - N/A   Partly Cloudy
1:53 PM 80.1 °F 81.5 °F 63.0 °F 56% 30.02 in 10.0 mi SSE 3.5 mph - N/A   Partly Cloudy
2:53 PM 78.1 °F - 62.1 °F 58% 30.01 in 10.0 mi East 4.6 mph - N/A   Clear
4:53 PM 80.1 °F 81.1 °F 61.0 °F 52% 29.99 in 10.0 mi East 4.6 mph - N/A   Partly Cloudy
5:53 PM 78.1 °F - 63.0 °F 60% 29.99 in 10.0 mi Calm Calm - N/A   Clear
6:53 PM 71.1 °F - 64.0 °F 78% 30.00 in 10.0 mi Calm Calm - N/A   Clear
7:53 PM 68.0 °F - 63.0 °F 84% 30.00 in 10.0 mi Calm Calm - N/A   Clear
8:53 PM 66.0 °F - 63.0 °F 90% 30.01 in 10.0 mi Calm Calm - N/A   Clear
9:53 PM 64.0 °F - 61.0 °F 90% 30.01 in 10.0 mi Calm Calm - N/A   Clear
10:53 PM 64.0 °F - 62.1 °F 93% 30.01 in 8.0 mi Calm Calm - N/A   Clear
11:53 PM 64.0 °F - 63.0 °F 96% 30.00 in 6.0 mi Calm Calm - N/A   Clear